FW9176 Weather Reports


time (UTC)temp
C
wind
direction
speed
KPH
gust
KPH
rain 1hr
cm
rain 24hr
cm
rain mn
cm
humidity
%
barometer
mb
20260902141555 28 0 0.0 3.2 0.00 0.00 0.00 65 1012.5
20260902134602 27 0 0.0 4.8 0.00 0.00 0.00 70 1012.6
20260902133102 26 0 0.0 4.8 0.00 0.00 0.00 71 1012.7
20260902131602 26 0 0.0 3.2 0.00 0.00 0.00 72 1012.9
20260902124603 26 0 0.0 3.2 0.00 0.00 0.00 73 1012.9
20260902123104 26 0 0.0 0.0 0.00 0.00 0.00 73 1012.9
20260902121612 25 0 0.0 3.2 0.00 0.00 0.00 73 1012.7
20260902120111 25 0 0.0 0.0 0.00 0.00 0.00 73 1012.6
20260902114616 25 0 0.0 4.8 0.00 0.00 0.00 72 1012.4
20260902113103 25 0 0.0 4.8 0.00 0.00 0.00 72 1012.5
20260902111602 25 0 0.0 0.0 0.00 0.00 0.00 72 1012.5
20260902110059 26 0 0.0 1.6 0.00 0.00 0.00 72 1012.4
20260902104604 26 0 0.0 1.6 0.00 0.00 0.00 71 1012.3
20260902103119 26 0 0.0 0.0 0.00 0.00 0.00 72 1012.3
20260902101558 26 0 0.0 1.6 0.00 0.00 0.00 71 1012.3
20260902100059 26 0 0.0 4.8 0.00 0.00 0.00 72 1012.3
20260902094601 26 0 0.0 3.2 0.00 0.00 0.00 72 1012.3
20260902093110 26 0 0.0 3.2 0.00 0.00 0.00 72 1012.1
20260902091559 26 0 0.0 1.6 0.00 0.00 0.00 73 1012.1
20260902084600 26 0 0.0 0.0 0.00 0.00 0.00 72 1012.0
20260902083055 26 0 0.0 1.6 0.00 0.00 0.00 72 1012.0
20260902081555 26 0 0.0 1.6 0.00 0.00 0.00 72 1012.0
20260902080053 26 0 0.0 0.0 0.00 0.00 0.00 72 1011.9
20260902074613 26 0 0.0 0.0 0.00 0.00 0.00 72 1012.0
20260902073056 27 0 0.0 1.6 0.00 0.00 0.00 72 1011.9
20260902071559 27 169 0.0 6.4 0.00 0.00 0.00 71 1011.9
20260902070103 27 0 0.0 3.2 0.00 0.00 0.00 72 1011.9
20260902064602 27 0 0.0 1.6 0.00 0.00 0.00 71 1012.0
20260902063057 27 0 0.0 1.6 0.00 0.00 0.00 71 1012.0
20260902061559 27 0 0.0 4.8 0.00 0.00 0.00 72 1012.0
20260902060104 27 185 0.0 3.2 0.00 0.00 0.00 72 1011.9
20260902054559 27 0 0.0 4.8 0.00 0.00 0.00 72 1011.9
20260902053106 27 0 0.0 6.4 0.00 0.00 0.00 72 1012.1
20260902051559 27 0 0.0 3.2 0.00 0.00 0.00 72 1012.1
20260902050100 27 0 0.0 1.6 0.00 0.00 0.00 71 1012.2
20260902044603 27 181 0.0 3.2 0.00 0.00 0.00 71 1012.3
20260902043109 28 0 0.0 3.2 0.00 0.00 0.00 70 1012.2
20260902041600 28 167 0.0 4.8 0.00 0.00 0.00 69 1012.2
20260902040105 28 0 0.0 4.8 0.00 0.00 0.00 67 1012.3
20260902034608 28 0 0.0 6.4 0.00 0.00 0.00 66 1012.5
20260902033105 29 0 0.0 3.2 0.00 0.00 0.00 66 1012.5
20260902031600 29 137 0.0 6.4 0.00 0.00 0.00 66 1012.5
20260902030103 29 0 0.0 4.8 0.00 0.00 0.00 66 1012.4
20260902024604 29 154 0.0 1.6 0.00 0.00 0.00 66 1012.3
20260902023104 29 0 0.0 3.2 0.00 0.00 0.00 66 1012.3
20260902021604 29 0 0.0 1.6 0.00 0.00 0.00 66 1012.5
20260902020105 30 0 0.0 0.0 0.00 0.00 0.00 66 1012.4
20260902014556 30 0 0.0 1.6 0.00 0.00 0.00 65 1012.2
20260902013100 30 148 0.0 4.8 0.00 0.00 0.00 64 1011.9
20260902011602 30 171 0.0 4.8 0.00 0.00 0.00 63 1011.6
20260902010059 31 139 0.0 4.8 0.00 0.00 0.00 62 1011.5
20260902004608 31 144 0.0 4.8 0.00 0.00 0.00 61 1011.4
20260902003106 32 177 0.0 4.8 0.00 0.00 0.00 57 1011.4
20260902001607 32 0 0.0 6.4 0.00 0.00 0.00 54 1011.6
20260902000058 33 0 0.0 3.2 0.00 0.00 0.00 51 1011.6
20260901234612 33 0 0.0 4.8 0.00 0.00 0.00 53 1011.6
20260901233105 33 180 0.0 4.8 0.00 0.00 0.00 53 1011.6
20260901231601 33 0 1.6 6.4 0.00 0.00 0.00 54 1011.6
20260901230059 33 0 0.0 4.8 0.00 0.00 0.00 55 1011.6
20260901224604 33 136 0.0 3.2 0.00 0.20 0.00 56 1011.4
20260901223059 33 0 0.0 3.2 0.00 0.20 0.00 55 1011.5
20260901221555 33 150 0.0 3.2 0.00 0.20 0.00 54 1011.5
20260901220118 33 217 0.0 3.2 0.00 0.20 0.00 54 1011.5
20260901214559 33 0 0.0 4.8 0.00 0.20 0.00 53 1011.6
20260901213104 33 0 0.0 6.4 0.00 0.20 0.00 56 1011.6
20260901211554 33 0 0.0 6.4 0.00 0.20 0.00 56 1011.7
20260901210100 34 293 0.0 6.4 0.00 0.20 0.00 56 1011.6
20260901204558 34 311 0.0 4.8 0.00 0.20 0.00 54 1011.8
20260901203103 34 146 0.0 4.8 0.00 0.20 0.00 56 1011.8
20260901201604 33 252 0.0 6.4 0.00 0.20 0.00 54 1011.8
20260901200104 33 124 1.6 6.4 0.00 0.20 0.00 56 1012.1
20260901194607 34 271 0.0 4.8 0.00 0.20 0.00 55 1012.1
20260901193114 34 222 0.0 6.4 0.00 0.20 0.00 54 1012.0
20260901191605 34 314 0.0 9.7 0.00 0.20 0.00 55 1012.0
20260901190100 33 162 0.0 6.4 0.00 0.20 0.00 56 1012.1
20260901184603 34 297 1.6 8.0 0.00 0.20 0.00 56 1012.3
20260901183103 34 0 1.6 6.4 0.00 0.20 0.00 54 1012.4
20260901181556 34 0 0.0 4.8 0.00 0.20 0.00 55 1012.6
20260901174600 33 290 0.0 14.5 0.00 0.20 0.00 58 1012.5
20260901173104 33 249 1.6 12.9 0.00 0.20 0.00 59 1012.7
20260901171601 33 135 0.0 8.0 0.00 0.20 0.00 62 1012.9
20260901170120 32 124 1.6 6.4 0.00 0.20 0.00 61 1012.9
20260901164607 32 165 0.0 6.4 0.00 0.20 0.00 61 1013.2
20260901163056 32 250 0.0 6.4 0.00 0.20 0.00 64 1013.2
20260901161602 31 152 0.0 8.0 0.00 0.20 0.00 65 1013.0
20260901154612 30 149 0.0 4.8 0.00 0.23 0.00 68 1013.0
20260901153103 29 0 0.0 4.8 0.00 0.23 0.00 70 1013.1
20260901151601 28 300 0.0 1.6 0.00 0.23 0.00 70 1013.1
20260901150110 28 0 0.0 4.8 0.00 0.23 0.00 71 1013.1
20260901144601 28 0 0.0 3.2 0.00 0.30 0.00 73 1013.2
20260901143059 27 0 1.6 4.8 0.00 0.30 0.00 73 1013.1